Waarnemingen

Advertentie
Mijn weer
Estaca de Bares, Spanje (8004): temperatuur & dauwpunt: 09.11.2018 20:00:00 - 15.11.2018 20:00:00 (CET)Estaca de Bares, Spanje (8004): windsnelheid & windstoten: 09.11.2018 20:00:00 - 15.11.2018 20:00:00 (CET)Estaca de Bares, Spanje (8004): windrichting: 09.11.2018 20:00:00 - 15.11.2018 20:00:00 (CET)Estaca de Bares, Spanje (8004): luchtdruk: 09.11.2018 20:00:00 - 15.11.2018 20:00:00 (CET)Estaca de Bares, Spanje (8004): zicht: 09.11.2018 20:00:00 - 15.11.2018 20:00:00 (CET)Estaca de Bares, Spanje (8004): Zonneschijnduur: 09.11.2018 20:00:00 - 15.11.2018 20:00:00 (CET)Estaca de Bares, Spanje (8004): neerslag: 09.11.2018 20:00:00 - 15.11.2018 20:00:00 (CET)
Datum & Tijd tt [°C] td [°C] ff [km/u] ff [kn] fx [km/u] fx [kn] dd ppp [hPa] vv [km] sd [min] rr [mm]
15.11.2018 20:00:00 14,4 9,7 22 12 30 16 ZO 1016,4 20 0 0,0
15.11.2018 19:00:00 14,4 10,4 20 11 26 14 OZO 1016,4 20 0 -
15.11.2018 18:00:00 14,6 10,4 17 9 27 15 OZO 1016,0 20 11 0,0
15.11.2018 17:00:00 16,2 9,8 19 11 29 16 OZO 1015,2 20 60 0,0
15.11.2018 16:00:00 17,0 9,9 21 12 26 14 OZO 1014,7 20 58 0,0
15.11.2018 15:00:00 17,4 9,8 16 9 22 12 OZO 1014,6 20 11 0,0
15.11.2018 14:00:00 18,4 10,8 4 2 14 7 WNW 1014,9 20 37 0,0
15.11.2018 13:00:00 19,9 10,6 9 5 18 10 ZZW 1015,1 20 16 -
15.11.2018 12:00:00 17,6 9,7 4 2 12 7 WZW 1015,5 20 26 -
15.11.2018 11:00:00 17,2 9,2 12 6 23 13 W 1015,1 20 60 -
15.11.2018 10:00:00 16,5 8,7 15 8 21 11 Z 1015,0 20 57 -
15.11.2018 09:00:00 16,1 7,3 10 5 14 8 ZZW 1014,7 20 0 -
15.11.2018 08:00:00 16,1 7,3 5 3 14 7 WZW 1014,0 20 0 -
15.11.2018 07:00:00 15,6 7,4 8 4 18 10 ZW 1013,7 20 0 -
15.11.2018 06:00:00 14,7 7,7 10 5 26 14 WZW 1013,2 20 0 -
15.11.2018 05:00:00 13,9 7,8 16 9 27 15 W 1012,8 20 0 -
15.11.2018 04:00:00 14,0 8,8 11 6 18 10 W 1012,9 20 0 -
15.11.2018 03:00:00 15,4 7,4 6 3 15 8 WZW 1012,7 20 0 -
15.11.2018 02:00:00 15,3 8,3 2 1 18 10 ONO 1012,8 20 0 -
15.11.2018 01:00:00 15,0 8,7 5 3 15 8 WZW 1013,2 20 0 -
15.11.2018 00:00:00 15,3 8,1 14 8 17 9 Z 1013,5 20 0 -
14.11.2018 23:00:00 14,2 9,4 3 1 17 9 W 1014,3 20 0 -
14.11.2018 22:00:00 13,8 9,8 16 9 23 13 ZZO 1014,6 20 0 -
14.11.2018 21:00:00 14,7 10,2 18 10 23 13 OZO 1014,8 20 0 -
14.11.2018 20:00:00 15,4 10,2 22 12 30 16 ZZO 1015,0 20 0 -
14.11.2018 19:00:00 15,0 9,6 18 10 25 14 ZO 1015,0 20 0 -
14.11.2018 18:00:00 14,1 9,9 21 11 27 15 OZO 1015,1 20 45 -
14.11.2018 17:00:00 16,1 9,3 16 9 25 14 OZO 1015,3 20 60 -
14.11.2018 16:00:00 16,8 6,8 17 9 22 12 OZO 1015,4 20 60 -
14.11.2018 15:00:00 16,5 7,4 12 7 18 10 OZO 1016,0 20 27 -
14.11.2018 14:00:00 16,8 7,7 10 6 16 9 OZO 1016,5 20 38 -
14.11.2018 13:00:00 18,3 7,4 - - - - - 1017,0 20 - -
14.11.2018 12:00:00 17,6 8,4 5 3 10 6 OZO 1018,1 20 60 -
14.11.2018 11:00:00 16,3 8,0 3 2 11 6 ZW 1018,4 20 60 -
14.11.2018 10:00:00 14,0 6,4 4 2 14 8 WNW 1018,8 20 60 -
14.11.2018 09:00:00 13,8 6,4 12 7 37 20 ZZW 1018,6 20 21 -
14.11.2018 08:00:00 12,9 6,1 14 8 23 13 Z 1018,4 20 0 -
14.11.2018 07:00:00 13,2 6,2 20 11 29 16 ZZW 1018,5 20 0 -
14.11.2018 06:00:00 12,3 6,4 12 7 20 11 Z 1018,9 20 0 -
14.11.2018 05:00:00 12,6 6,4 6 3 17 9 ZW 1019,2 20 0 -
14.11.2018 04:00:00 12,6 6,2 8 4 19 10 ZZW 1019,8 20 0 -
14.11.2018 03:00:00 12,7 6,5 16 8 21 11 ZZW 1020,3 20 0 -
14.11.2018 02:00:00 12,3 5,5 4 2 7 4 ZW 1020,7 20 0 -
14.11.2018 01:00:00 12,3 5,9 2 1 10 5 WNW 1021,4 20 0 -
14.11.2018 00:00:00 12,1 4,6 4 2 13 7 ZW 1021,8 20 0 -
13.11.2018 23:00:00 11,6 4,6 8 4 19 10 ZZW 1022,2 20 0 -
13.11.2018 22:00:00 11,7 6,2 8 4 14 7 ZZW 1022,5 20 0 -
13.11.2018 21:00:00 11,9 8,0 7 4 27 14 ZZO 1022,4 20 0 -
13.11.2018 20:00:00 11,9 7,8 19 10 27 14 ZO 1022,4 20 0 -
13.11.2018 19:00:00 11,8 8,1 21 11 32 18 OZO 1022,6 20 0 -
13.11.2018 18:00:00 12,3 8,8 22 12 34 18 ZO 1022,5 20 57 -
13.11.2018 17:00:00 12,8 8,5 23 13 31 17 OZO 1022,9 20 60 -
13.11.2018 16:00:00 13,3 8,4 24 13 34 19 OZO 1023,1 20 60 -
13.11.2018 15:00:00 14,1 8,1 17 9 37 20 O 1023,2 20 60 -
13.11.2018 14:00:00 13,7 7,8 29 16 39 21 OZO 1023,4 20 60 -
13.11.2018 13:00:00 14,2 8,7 24 13 34 19 O 1024,3 20 60 -
13.11.2018 12:00:00 13,9 8,1 17 9 25 13 OZO 1025,2 20 60 -
13.11.2018 11:00:00 13,2 7,6 15 8 27 14 ZO 1025,3 20 60 -
13.11.2018 10:00:00 12,0 7,1 9 5 16 9 ZZO 1025,1 20 60 -
13.11.2018 09:00:00 10,7 7,1 5 3 10 5 OZO 1024,8 20 23 -
13.11.2018 08:00:00 10,5 6,4 4 2 13 7 ONO 1024,4 20 0 -
13.11.2018 07:00:00 10,8 5,0 8 5 16 9 ZZO 1024,0 20 0 -
13.11.2018 06:00:00 10,4 5,1 9 5 16 9 ZZO 1023,6 20 0 -
13.11.2018 05:00:00 10,7 6,1 5 3 9 5 ZZW 1023,3 20 0 -
13.11.2018 04:00:00 9,9 6,1 7 4 14 7 ZZW 1023,3 20 0 -
13.11.2018 03:00:00 11,0 7,3 9 5 19 10 WZW 1023,0 20 0 -
13.11.2018 02:00:00 10,5 7,7 11 6 18 10 WZW 1022,5 20 0 -
13.11.2018 01:00:00 11,6 7,3 13 7 23 12 WZW 1021,9 20 0 -
13.11.2018 00:00:00 11,4 8,1 15 8 26 14 WZW 1021,7 20 0 -
12.11.2018 23:00:00 11,2 8,1 19 11 27 15 WZW 1021,4 20 0 -
12.11.2018 22:00:00 11,3 8,4 21 11 27 14 WZW 1021,0 20 0 -
12.11.2018 21:00:00 11,6 8,1 17 9 26 14 WZW 1020,5 20 0 -
12.11.2018 20:00:00 11,7 8,0 21 11 28 15 W 1019,7 20 0 -
12.11.2018 19:00:00 12,0 7,6 14 7 31 17 WZW 1018,7 20 0 -
12.11.2018 18:00:00 12,9 7,7 23 13 34 18 W 1017,4 20 55 -
12.11.2018 17:00:00 14,0 7,3 35 19 52 28 W 1016,6 20 60 -
12.11.2018 16:00:00 15,5 8,5 28 15 37 20 W 1015,4 20 60 -
12.11.2018 15:00:00 15,8 8,3 29 16 36 20 W 1015,3 20 60 -
12.11.2018 14:00:00 15,2 8,3 29 15 37 20 W 1015,2 20 60 -
12.11.2018 13:00:00 14,9 8,8 29 15 33 18 W 1015,0 20 58 -
12.11.2018 12:00:00 13,7 7,0 17 9 37 20 ZZW 1015,3 20 60 -
12.11.2018 11:00:00 12,8 7,3 26 14 34 18 ZZW 1014,9 20 60 -
12.11.2018 10:00:00 11,9 6,5 18 10 35 19 ZW 1013,5 20 60 -
12.11.2018 09:00:00 10,4 6,8 22 12 32 17 W 1012,3 20 24 -
12.11.2018 08:00:00 10,1 6,8 23 12 41 22 W 1012,2 20 0 -
12.11.2018 07:00:00 10,2 7,1 27 15 42 23 W 1011,8 20 0 -
12.11.2018 06:00:00 10,6 7,3 35 19 43 23 WZW 1011,1 20 0 -
12.11.2018 05:00:00 10,0 7,3 28 15 35 19 W 1010,4 20 0 -
12.11.2018 04:00:00 10,1 7,6 25 13 29 16 W 1009,8 20 0 -
12.11.2018 03:00:00 10,2 7,6 24 13 29 16 W 1009,1 20 0 -
12.11.2018 02:00:00 10,4 7,7 24 13 27 15 W 1008,5 20 0 -
12.11.2018 01:00:00 10,8 7,8 23 13 30 16 WZW 1008,4 20 0 -
12.11.2018 00:00:00 11,0 7,8 23 13 32 17 W 1007,8 20 0 -
11.11.2018 23:00:00 11,4 8,3 25 14 32 17 W 1007,4 20 0 -
11.11.2018 22:00:00 11,3 8,7 16 9 29 16 W 1007,5 20 0 -
11.11.2018 21:00:00 12,0 8,1 23 13 31 17 WZW 1007,2 20 0 -
11.11.2018 20:00:00 12,3 7,1 21 12 36 19 ZW 1006,9 20 0 -
11.11.2018 19:00:00 12,5 8,5 13 7 19 10 WZW 1006,2 20 0 -
11.11.2018 18:00:00 12,6 8,7 8 5 23 13 WZW 1006,3 20 0 -
11.11.2018 17:00:00 12,9 8,9 13 7 20 11 WZW 1006,0 20 0 -
11.11.2018 16:00:00 13,5 8,8 15 8 29 15 W 1005,5 20 0 -
11.11.2018 15:00:00 13,0 8,3 25 13 41 22 WZW 1005,4 20 0 -
11.11.2018 14:00:00 13,2 8,5 31 17 42 23 WZW 1005,9 20 0 -
11.11.2018 13:00:00 13,3 9,2 33 18 52 28 W 1005,9 20 0 -
11.11.2018 12:00:00 13,3 9,3 42 23 61 33 WZW 1005,5 - 0 -
11.11.2018 11:00:00 13,0 9,4 46 25 56 31 W 1004,6 20 23 -
11.11.2018 10:00:00 13,0 10,2 41 22 54 29 WZW 1004,8 20 34 -
11.11.2018 09:00:00 11,9 9,8 51 27 74 40 W 1004,2 20 0 -
11.11.2018 08:00:00 12,1 10,6 55 30 73 40 W 1003,2 20 0 -
11.11.2018 07:00:00 12,6 10,9 61 33 76 41 W 1001,5 20 0 -
11.11.2018 06:00:00 13,5 11,6 27 15 39 21 WZW 1001,4 20 0 -
11.11.2018 05:00:00 13,4 11,2 35 19 59 32 WZW 1001,3 20 0 -
11.11.2018 04:00:00 13,4 10,9 40 21 56 31 WZW 1001,4 20 0 -
11.11.2018 03:00:00 14,1 10,3 38 21 74 40 WZW 1001,7 20 0 -
11.11.2018 02:00:00 13,7 10,3 53 29 79 43 WZW 1001,8 20 0 -
11.11.2018 01:00:00 14,0 10,6 55 30 72 39 WZW 1002,3 20 0 -
11.11.2018 00:00:00 13,1 11,0 29 15 46 25 W 1003,1 20 0 -
10.11.2018 23:00:00 13,5 10,9 39 21 90 48 W 1003,4 20 0 -
10.11.2018 22:00:00 14,7 10,3 59 32 83 45 W 1002,4 20 0 -
10.11.2018 21:00:00 14,3 10,5 51 28 78 42 WZW 1002,6 20 0 -
10.11.2018 20:00:00 14,5 9,6 55 30 92 50 W 1002,1 20 0 -
10.11.2018 19:00:00 14,6 8,9 61 33 81 44 WZW 1001,9 20 0 -
10.11.2018 18:00:00 14,6 8,8 55 30 82 45 WZW 1002,3 20 15 -
10.11.2018 17:00:00 15,4 9,0 60 33 94 51 WZW 1001,5 20 60 -
10.11.2018 16:00:00 15,6 9,3 62 33 91 49 W 1001,4 20 59 -
10.11.2018 15:00:00 15,9 9,3 66 36 96 52 W 1001,3 20 56 -
10.11.2018 14:00:00 15,7 10,3 62 33 81 44 W 1001,4 20 41 -
10.11.2018 13:00:00 15,1 10,0 63 34 79 43 W 1001,6 20 56 -
10.11.2018 12:00:00 13,9 9,6 53 29 93 50 WZW 1001,9 20 10 -
10.11.2018 11:00:00 13,0 9,0 55 30 81 44 WZW 1001,9 20 4 -
10.11.2018 10:00:00 13,0 9,0 60 33 82 45 WZW 1002,4 20 2 -
10.11.2018 09:00:00 12,8 8,5 57 31 72 39 WZW 1002,2 20 0 -
10.11.2018 08:00:00 12,3 8,8 54 29 75 41 WZW 1002,3 20 0 -
10.11.2018 07:00:00 12,5 9,3 61 33 80 43 WZW 1002,1 20 0 -
10.11.2018 06:00:00 12,8 9,8 63 34 87 47 W 1001,7 20 0 -
10.11.2018 05:00:00 12,7 10,0 61 33 86 47 W 1001,4 20 0 -
10.11.2018 04:00:00 12,8 10,9 54 29 79 43 W 1001,5 20 0 -
10.11.2018 03:00:00 13,6 10,8 46 25 72 39 W 1001,6 20 0 -
10.11.2018 02:00:00 12,8 10,2 55 30 69 37 W 1001,4 20 0 -
10.11.2018 01:00:00 12,1 9,7 50 27 85 46 W 1002,1 20 0 -
10.11.2018 00:00:00 11,6 9,6 66 36 91 49 WZW 1001,5 20 0 -
09.11.2018 23:00:00 12,8 11,6 61 33 100 54 W 1001,8 20 0 -
09.11.2018 22:00:00 13,4 12,1 73 40 103 55 W 1001,0 20 0 -
09.11.2018 21:00:00 14,8 13,6 61 33 109 59 WZW 1001,7 20 0 -
09.11.2018 20:00:00 14,9 13,7 72 39 112 60 WZW 1000,4 20 0 -

tt = temperatuur
td = dauwpunt
ff = windsnelheid
fx = windstoten
dd = windrichting
ppp = luchtdruk
vv = zicht
sd = Zonneschijnduur
rr = neerslag

Weerstations in de omgeving